• In Hungary
  • List of Countries
  • For 7 days
  • Water Temperature
  • Satellite Maps
  • Weather Map
  • News
  • Weather Widgets
  • user-avatar
    Login

    Hourly Weather Hamar

    Today, 21 June, Thursday

    Time Temperature Precipitation Wind Pressure Humidity
    00:00 +7°C° 0 mm 1 mps 736 mmHg 77%
    01:00 +7°C° 0 mm 1 mps 736 mmHg 81%
    02:00 +7°C° 0 mm 1 mps 736 mmHg 81%
    03:00 +7°C° 0 mm 1 mps 736 mmHg 80%
    04:00 +7°C° 0 mm 1 mps 736 mmHg 79%
    05:00 +8°C° 0 mm 2 mps 736 mmHg 75%
    06:00 +9°C° 0 mm 2 mps 735 mmHg 70%
    07:00 +12°C° 0 mm 2 mps 735 mmHg 65%
    08:00 +12°C° 0.5 mm 2 mps 735 mmHg 71%
    09:00 +12°C° 0.5 mm 2 mps 735 mmHg 76%
    10:00 +11°C° 0.5 mm 3 mps 735 mmHg 82%
    11:00 +10°C° 0.9 mm 3 mps 734 mmHg 83%
    12:00 +10°C° 0.9 mm 3 mps 734 mmHg 85%
    13:00 +10°C° 0.9 mm 4 mps 734 mmHg 87%
    14:00 +11°C° 0.5 mm 4 mps 734 mmHg 84%
    15:00 +11°C° 0.5 mm 4 mps 734 mmHg 81%
    16:00 +12°C° 0.5 mm 4 mps 734 mmHg 77%
    17:00 +12°C° 0.3 mm 4 mps 734 mmHg 77%
    18:00 +12°C° 0.3 mm 3 mps 734 mmHg 77%
    19:00 +12°C° 0.3 mm 3 mps 734 mmHg 77%
    20:00 +10°C° 0 mm 3 mps 735 mmHg 78%
    21:00 +9°C° 0 mm 3 mps 735 mmHg 78%
    22:00 +7°C° 0 mm 4 mps 736 mmHg 78%
    23:00 +7°C° 0 mm 4 mps 736 mmHg 78%

    Tomorrow, 22 June, Friday

    Time Temperature Precipitation Wind Pressure Humidity
    00:00 +6°C° 0 mm 4 mps 736 mmHg 78%
    01:00 +7°C° 0 mm 3 mps 736 mmHg 78%
    02:00 +5°C° 0 mm 3 mps 736 mmHg 79%
    03:00 +5°C° 0 mm 3 mps 736 mmHg 79%
    04:00 +5°C° 0 mm 3 mps 736 mmHg 79%
    05:00 +8°C° 0 mm 3 mps 736 mmHg 74%
    06:00 +8°C° 0 mm 4 mps 736 mmHg 69%
    07:00 +10°C° 0 mm 5 mps 736 mmHg 63%
    08:00 +12°C° 0.1 mm 5 mps 736 mmHg 56%
    09:00 +13°C° 0.1 mm 6 mps 736 mmHg 49%
    10:00 +14°C° 0.1 mm 7 mps 736 mmHg 42%
    11:00 +14°C° 0.1 mm 6 mps 736 mmHg 44%
    12:00 +14°C° 0.1 mm 6 mps 736 mmHg 45%
    13:00 +14°C° 0.1 mm 6 mps 736 mmHg 46%
    14:00 +14°C° 0 mm 6 mps 736 mmHg 45%
    15:00 +14°C° 0 mm 6 mps 736 mmHg 44%
    16:00 +14°C° 0 mm 6 mps 737 mmHg 42%
    17:00 +14°C° 0 mm 5 mps 737 mmHg 44%
    18:00 +13°C° 0 mm 5 mps 737 mmHg 46%
    19:00 +13°C° 0 mm 4 mps 737 mmHg 48%
    20:00 +11°C° 0 mm 4 mps 737 mmHg 51%
    21:00 +10°C° 0 mm 3 mps 738 mmHg 54%
    22:00 +9°C° 0 mm 3 mps 738 mmHg 57%
    23:00 +8°C° 0 mm 3 mps 738 mmHg 57%

    Day after tomorrow, 23 June, Saturday

    Time Temperature Precipitation Wind Pressure Humidity
    00:00 +7°C° 0 mm 2 mps 738 mmHg 57%
    01:00 +7°C° 0 mm 2 mps 739 mmHg 57%
    02:00 +7°C° 0 mm 2 mps 739 mmHg 57%
    03:00 +6°C° 0 mm 2 mps 739 mmHg 58%
    04:00 +6°C° 0 mm 2 mps 740 mmHg 58%
    05:00 +8°C° 0 mm 2 mps 740 mmHg 52%
    06:00 +10°C° 0 mm 3 mps 740 mmHg 47%
    07:00 +12°C° 0 mm 4 mps 740 mmHg 41%
    08:00 +14°C° 0 mm 4 mps 740 mmHg 40%
    09:00 +17°C° 0 mm 4 mps 739 mmHg 38%
    10:00 +18°C° 0 mm 3 mps 739 mmHg 37%
    11:00 +19°C° 0 mm 3 mps 739 mmHg 37%
    12:00 +20°C° 0 mm 3 mps 739 mmHg 37%
    13:00 +21°C° 0 mm 3 mps 739 mmHg 37%
    14:00 +20°C° 0 mm 2 mps 739 mmHg 41%
    15:00 +20°C° 0 mm 2 mps 739 mmHg 45%
    16:00 +20°C° 0 mm 2 mps 739 mmHg 49%
    17:00 +19°C° 0.1 mm 2 mps 739 mmHg 54%
    18:00 +18°C° 0.1 mm 2 mps 740 mmHg 59%
    19:00 +17°C° 0.1 mm 2 mps 740 mmHg 64%
    20:00 +15°C° 0.1 mm 1 mps 741 mmHg 70%
    21:00 +14°C° 0.1 mm 1 mps 741 mmHg 76%
    22:00 +12°C° 0.1 mm 1 mps 742 mmHg 82%
    23:00 +11°C° 0 mm 1 mps 743 mmHg 84%

    24 June, Sunday

    Time Temperature Precipitation Wind Pressure Humidity
    00:00 +10°C° 0 mm 1 mps 743 mmHg 86%
    01:00 +9°C° 0 mm 1 mps 743 mmHg 88%
    02:00 +9°C° 0 mm 1 mps 744 mmHg 88%
    03:00 +9°C° 0 mm 1 mps 744 mmHg 88%
    04:00 +9°C° 0 mm 1 mps 745 mmHg 87%
    05:00 +11°C° 0 mm 1 mps 745 mmHg 78%
    06:00 +13°C° 0 mm 1 mps 745 mmHg 68%
    07:00 +15°C° 0 mm 2 mps 745 mmHg 59%
    08:00 +18°C° 0 mm 1 mps 745 mmHg 52%
    09:00 +20°C° 0 mm 1 mps 745 mmHg 46%
    10:00 +21°C° 0 mm 1 mps 745 mmHg 39%
    11:00 +22°C° 0 mm 1 mps 745 mmHg 37%
    12:00 +23°C° 0 mm 1 mps 745 mmHg 34%
    13:00 +24°C° 0 mm 1 mps 745 mmHg 32%
    14:00 +24°C° 0 mm 1 mps 745 mmHg 32%
    15:00 +25°C° 0 mm 1 mps 745 mmHg 32%
    16:00 +25°C° 0 mm 1 mps 745 mmHg 32%
    17:00 +24°C° 0 mm 1 mps 745 mmHg 37%
    18:00 +23°C° 0 mm 1 mps 745 mmHg 43%
    19:00 +22°C° 0 mm 1 mps 745 mmHg 49%
    20:00 +20°C° 0 mm 1 mps 746 mmHg 56%
    21:00 +18°C° 0 mm 1 mps 746 mmHg 63%
    22:00 +15°C° 0 mm 1 mps 746 mmHg 69%
    23:00 +14°C° 0 mm 0 mps 747 mmHg 71%

    25 June, Monday

    Time Temperature Precipitation Wind Pressure Humidity
    00:00 +13°C° 0 mm 0 mps 747 mmHg 73%
    01:00 +13°C° 0 mm 0 mps 747 mmHg 74%
    02:00 +13°C° 0 mm 0 mps 747 mmHg 75%
    03:00 +13°C° 0 mm 0 mps 747 mmHg 75%
    04:00 +13°C° 0 mm 0 mps 748 mmHg 75%
    05:00 +14°C° 0.1 mm 0 mps 748 mmHg 75%
    06:00 +14°C° 0.1 mm 0 mps 748 mmHg 75%
    07:00 +14°C° 0.1 mm 0 mps 748 mmHg 75%
    08:00 +16°C° 0 mm 0 mps 748 mmHg 72%
    09:00 +17°C° 0 mm 0 mps 748 mmHg 68%
    10:00 +18°C° 0 mm 0 mps 748 mmHg 65%
    11:00 +20°C° 0 mm 0 mps 748 mmHg 59%
    12:00 +23°C° 0 mm 1 mps 748 mmHg 53%
    13:00 +25°C° 0 mm 1 mps 748 mmHg 47%
    14:00 +26°C° 0 mm 1 mps 748 mmHg 46%
    15:00 +26°C° 0 mm 1 mps 748 mmHg 45%
    16:00 +27°C° 0 mm 1 mps 748 mmHg 45%
    17:00 +26°C° 0 mm 1 mps 748 mmHg 49%
    18:00 +25°C° 0 mm 1 mps 748 mmHg 53%
    19:00 +24°C° 0 mm 1 mps 749 mmHg 58%
    20:00 +23°C° 0 mm 1 mps 749 mmHg 64%
    21:00 +21°C° 0 mm 1 mps 749 mmHg 70%
    22:00 +19°C° 0 mm 1 mps 750 mmHg 76%
    23:00 +18°C° 0 mm 1 mps 750 mmHg 80%

    26 June, Tuesday

    Time Temperature Precipitation Wind Pressure Humidity
    00:00 +16°C° 0 mm 1 mps 750 mmHg 83%
    01:00 +14°C° 0 mm 0 mps 750 mmHg 86%
    02:00 +14°C° 0 mm 0 mps 750 mmHg 86%
    03:00 +14°C° 0 mm 0 mps 750 mmHg 86%
    04:00 +14°C° 0 mm 0 mps 750 mmHg 86%
    05:00 +16°C° 0 mm 0 mps 750 mmHg 78%
    06:00 +18°C° 0 mm 0 mps 750 mmHg 70%
    07:00 +20°C° 0 mm 0 mps 750 mmHg 62%
    08:00 +24°C° 0 mm 1 mps 750 mmHg 57%
    09:00 +25°C° 0 mm 1 mps 750 mmHg 52%
    10:00 +27°C° 0 mm 1 mps 750 mmHg 47%
    11:00 +28°C° 0 mm 1 mps 750 mmHg 44%
    12:00 +30°C° 0 mm 1 mps 750 mmHg 41%
    13:00 +29°C° 0 mm 0 mps 749 mmHg 39%
    14:00 +30°C° 0 mm 1 mps 749 mmHg 39%
    15:00 +30°C° 0 mm 1 mps 749 mmHg 40%
    16:00 +29°C° 0 mm 1 mps 749 mmHg 41%
    17:00 +29°C° 0 mm 1 mps 749 mmHg 45%
    18:00 +28°C° 0 mm 1 mps 750 mmHg 48%
    19:00 +27°C° 0 mm 2 mps 750 mmHg 52%
    20:00 +25°C° 0.1 mm 1 mps 750 mmHg 60%
    21:00 +23°C° 0.1 mm 1 mps 750 mmHg 68%
    22:00 +20°C° 0.1 mm 1 mps 751 mmHg 76%
    23:00 +19°C° 0 mm 1 mps 751 mmHg 76%
    Show more